Tracking 19792 objects as of 15-Jul-2019
HD Live streaming from Space Station
objects crossing your sky now

FLOCK 2K 24

Track FLOCK 2K 24 now!
10-day predictions
FLOCK 2K 24 is classified as:


NORAD ID: 42857
Int'l Code: 2017-042AJ
Perigee: 445.6 km
Apogee: 460.5 km
Inclination: 96.9 °
Period: 93.5 minutes
Semi major axis: 6824 km
RCS: Unknown
Launch date: July 14, 2017
Source: United States (US)
Launch site: TYURATAM MISSILE AND SPACE COMPLEX (TTMTR)
aabbcc
Your satellite tracking list
Your tracking list is empty




NASA's NSSDC Master Catalog

Two Line Element Set (TLE):
1 42857U 17042AJ  19196.20828883  .00003524  00000-0  89914-4 0  9994
2 42857  96.9365  77.4569 0010954 116.8536 243.3832 15.40069636112046
Source of the keplerian elements: AFSPC